Showing default

ICEYE-X53, 64584

Orbit data source: Space-Track

ICEYE-X53, 64584 is a payload satellite owned by ICEYE (FI) in SSO that was launched on Mon, 23 Jun 2025 UTC via an FALCON 9 launch vehicle from the Air Force Western Test Range (AFWTR). Payload-class satellites include a variety of spacecraft equipped with specific instruments for various scientific and technological missions. These include communications satellites like Starlink; space stations such as the ISS; scientific satellites like the Hubble; Earth observation satellites from companies like Planet Labs, Umbra, and HawkEye 360; GPS; miniature CubeSats for education and research; and military/defense satellites.

Loading next visibility...
Identifier
64584, 2025-135BJ
Orbit
SSO
Country
Flag of FIFI / FIN
Related business
Manufacturer
ICEYE
Mission
Operational Commercial Radar Imaging
Bus & Motor
ICEYE, Unknown motor
Mass
80 kg wet, 80 kg dry
Launch date (UTC)
2025-06-23 (1 year ago)
Launch vehicle
FALCON 9
Launch site
Air Force Western Test Range (AFWTR)
Object type
Payload
Rocket body
Debris
Shape & HBR
Box + 1 Pan, 2.4 m
Radar Cross Section
0.776 m², Large (>1 m²)

Expand to show TLE details & history
Last TLE update: 13 hours ago

TLE from 13 hours ago
0 ICEYE-X53
1 64584U 25135BJ  26207.62529053  .00003845  00000-0  30634-3 0  9991
2 64584  97.7348 324.2298 0002387 161.4121 198.7190 15.00952425 59993
Epoch: 2026-07-26T15:00Z
TLE epoch observation values (Epoch: 2026-07-26T15:00:25.101Z)
Latitude
-0.00008°
Longitude
154.80469°
Altitude
568.583 km
Speed
7.576 km/s
True Right ascension
21h 36m 55s
True Declination
0° 00' 00"
Sunlit
Object was in full shadow at epoch
Visualization orbit readout
Latitude
Unknown
Longitude
Unknown
Altitude
Unknown
Speed
Unknown
Apparent Right ascension
Unknown
Apparent Declination
Unknown
Sunlit
N/A
Visualization observer readout
Local Sidereal Time
17:28:23
Azimuth
Unknown
Elevation
Unknown
Doppler factor
Unknown
Orbital elements
Apogee altitude
562.62 km
Perigee altitude
559.307 km
Semi-major axis
6,939.101 km
Eccentricity
0.00024
Inclination
97.7348°
RAAN
324.2298°
Arg. of periapsis
161.4121°
True anomaly
198.71022°
Mean anomaly
198.719°
Eccentric anomaly
198.71461°
Mean motion
3.75481 °/min
Orbital period
95.88 mins
BSTAR
0.00030634
Loading maneuver chart data...
Computing Atmospheric mass density...
Loading historical data...
Loading historical data...
Loading historical data...
Loading historical data...
Loading historical data...
Loading historical data...
Loading historical data...

Documentation

Showing up to 5 results
|